Simultaneous Nadir Overpasses (SNOs) Predictions

Prediction of SNOs between NOAA-15 and METOP-C Satellite Orbit:

Table of predicted SNOs for the next 14.0 days since TLE Epoch: 8/26/2023
Index Date (NOAA-15) Time (NOAA-15) Lat,Lon (NOAA-15) SZA (NOAA-15 ) Date (METOP-C) Time (METOP-C) Lat,Lon (METOP-C) SZA (METOP-C ) Distance(km) Time Diff (sec)
1 08/27/2023 17:24:35 81.10, -43.12 73.00 08/27/2023 17:23:23 81.08, -43.18 72.95 1.91 72
2 08/27/2023 18:15:04 -81.10, 124.25 107.00 08/27/2023 18:14:03 -81.08, 124.20 107.04 1.75 61
3 08/27/2023 19:05:36 81.10, -68.46 73.02 08/27/2023 19:04:44 81.09, -68.32 73.00 2.65 52
4 08/27/2023 19:56:05 -81.10, 98.92 106.98 08/27/2023 19:55:24 -81.09, 99.05 106.99 2.47 41
5 08/27/2023 20:46:36 81.09, -93.43 73.06 08/27/2023 20:46:05 81.10, -93.47 73.05 1.26 31
6 08/27/2023 21:37:05 -81.09, 73.95 106.93 08/27/2023 21:36:45 -81.10, 73.90 106.94 1.52 20
7 08/27/2023 22:27:37 81.09,-118.77 73.08 08/27/2023 22:27:26 81.10,-118.62 73.10 2.90 11
8 08/27/2023 23:18:06 -81.09, 48.62 106.91 08/27/2023 23:18:06 -81.10, 48.75 106.89 2.77 0
9 08/28/2023 00:08:38 81.09,-144.11 73.10 08/28/2023 00:08:48 81.10,-144.14 73.10 0.62 10
10 08/28/2023 00:59:07 -81.09, 23.29 106.89 08/28/2023 00:59:28 -81.10, 23.23 106.89 1.08 21
11 08/28/2023 01:49:39 81.10,-169.45 73.12 08/28/2023 01:50:09 81.10,-169.29 73.15 2.79 30
12 08/28/2023 02:40:08 -81.10, -2.05 106.87 08/28/2023 02:40:49 -81.10, -1.92 106.84 2.37 41
13 08/28/2023 03:30:40 81.10, 165.21 73.14 08/28/2023 03:31:31 81.10, 165.19 73.15 0.72 51
14 08/28/2023 04:21:09 -81.10, -27.38 106.85 08/28/2023 04:22:11 -81.10, -27.44 106.83 1.06 62



Historial Predications of SNOs between NOAA-15 and METOP-C
